sat.trackr.live / text

‹ back to catalog

NANOSAT-1

NORAD 28493 · 2004-049B

PAYLOAD ACTIVE UNKNOWN

§ Identity

Operator
Country
SPN
Launch date
2004-12-18
Launch site
FRGUI
Launch vehicle
Mass (kg)
RCS (m²)
0.27

External: N2YO · Heavens-Above · Gunter

§ Orbital elements

Epoch: 2026-05-25T02:48:06.568416Z

Period
97.29 min
Inclination
98.2244°
Eccentricity
0.0004298
Mean motion
14.80104887 rev/d
Perigee alt
626.0 km
Apogee alt
632.0 km
Semi-major
7,007.1 km
B*
1.1770e-4
RAAN
281.2186°
Arg perigee
25.4000°
Mean anomaly
334.7421°
Rev number
15,203

§ Raw data

NANOSAT-11 28493U 04049B   26145.11674269  .00000837  00000+0  11770-3 0  99932 28493  98.2244 281.2186 0004298  25.4000 334.7421 14.80104887152035

JSON: /api/v1/satellites/28493 · /tle

For live sub-satellite position, see the globe view (requires WebGL).

§ Visibility from observer

Set your observer location to see the next 7 days of passes ≥ 10°. The values pass through the URL so the page stays shareable.

No JS? Fill the form by hand. The geolocation button needs JavaScript.